Regional Weather Roundup
Issued by NWS

Home | Current Version | Previous Version | Graphics & Text | Print | Product List | Glossary On
Versions: 1 2 3 4 5 6 7 8 9 10 11 12 13 14 15 16 17 18 19 20 21 22 23 24 25 26 27 28 29 30 31 32 33 34 35 36 37 38 39 40 41 42 43 44 45 46 47 48 49 50
000
ASUS43 KIND 091059
RWRIN

WEATHER ROUNDUP FOR INDIANA
NATIONAL WEATHER SERVICE INDIANAPOLIS IN
600 AM EST TUE FEB 09 2016

NOTE: "FAIR" INDICATES FEW OR NO CLOUDS BELOW 12,000 FEET WITH NO
SIGNIFICANT WEATHER AND/OR OBSTRUCTIONS TO VISIBILITY.

* - STATION DOES NOT REPORT WEATHER SUCH AS PRECIPITATION OR FOG.

+ - STATION NOT QUALITY CONTROLLED BY THE NATIONAL WEATHER SERVICE.
    USE DATA WITH CAUTION...ESPECIALLY DEWPOINT AND RELATIVE
    HUMIDITY OBSERVATIONS.

INZ001>003-010>013-019-020-091200-
NORTHWEST INDIANA

CITY           SKY/WX    TMP DP  RH WIND       PRES   REMARKS
GARY /AIRPORT/ LGT SNOW  21  14  73 W17       29.75R WCI   7
RENSSELAER +   CLOUDY    23  18  80 W14       29.74R WCI  11

$$

LMZ046-743>745-091200-
SOUTHERN LAKE MICHIGAN

STATION/POSITION TIME  TEMP    WIND        PRES    WAVE
                       AIR SEA DIR/SP/G            HT
                 (UTC) (F)     (DEG/KT/KT) (MB)    (FT)
BURNS HARBOR     1000   23     300/ 17/ 19 1006.8R
MICHIGAN CITY    1000   24     260/ 23/ 25   N/A

$$

INZ004-005-014>016-021>024-091200-
NORTH CENTRAL INDIANA

CITY           SKY/WX    TMP DP  RH WIND       PRES   REMARKS
GOSHEN         CLOUDY    26  22  84 W16       29.62R WCI  14
PERU/GRISSOM   LGT SNOW  22  19  89 W17       29.67S FOG     WCI   8
SOUTH BEND     LGT SNOW  25  24  96 W10       29.65R FOG     WCI  15

$$

INZ006>009-017-018-025>027-091200-
NORTHEAST INDIANA

CITY           SKY/WX    TMP DP  RH WIND       PRES   REMARKS
ANGOLA *+      CLOUDY    27  25  93 W8        29.57S WCI  18
FORT WAYNE     FLURRIES  28  21  75 W15       29.64R WCI  16

$$

INZ028-029-035-036-043>045-051>053-091200-
WEST CENTRAL INDIANA

CITY           SKY/WX    TMP DP  RH WIND       PRES   REMARKS
GREENCASTLE +  CLOUDY    19  12  73 W5        29.77R WCI  13
LAFAYETTE      CLOUDY    20  15  81 W13       29.75R WCI   7
TERRE HAUTE    FLURRIES  20  13  74 NW10      29.80R WCI   9

$$

INZ030>032-037>040-046>048-054>057-064-065-091200-
CENTRAL INDIANA

CITY           SKY/WX    TMP DP  RH WIND       PRES   REMARKS
GREENWOOD *+   CLOUDY    21  19  93 W8G16     29.74R WCI  12
INDIANAPOLIS   FLURRIES  21  16  81 W12       29.73R WCI   9
-EAGLE CREEK   FLURRIES  21  17  84 W12       29.73R WCI   9
KOKOMO *+      CLOUDY    21  18  86 W15       29.70R WCI   8
MT COMFORT *+  CLOUDY    21  18  86 W16       29.72S WCI   7
SHELBYVILLE    LGT SNOW  22  17  81 W15       29.73R WCI   9

$$

INZ033-034-041-042-049-050-058-059-091200-
EAST CENTRAL INDIANA

CITY           SKY/WX    TMP DP  RH WIND       PRES   REMARKS
MUNCIE         FLURRIES  24  18  77 W15       29.68R WCI  11

$$

INZ060-061-067>069-081>083-085>088-091200-
SOUTHWEST INDIANA

CITY           SKY/WX    TMP DP  RH WIND       PRES   REMARKS
EVANSVILLE     FLURRIES  23  14  68 VRB7      29.86S WCI  15
HUNTINGBURG *+ CLOUDY    21  12  68 W12       29.84R WCI   9

$$

INZ062-063-066-070>080-084-089>092-091200-
SOUTH CENTRAL AND SOUTHEAST INDIANA

CITY           SKY/WX    TMP DP  RH WIND       PRES   REMARKS
BLOOMINGTON    CLOUDY    20  15  81 W8        29.77R WCI  10
MADISON *+     CLOUDY    23  16  74 W7        29.78S WCI  15
SEYMOUR +      CLOUDY    23  16  74 W14       29.78R WCI  11

$$




USA.gov is the U.S. government's official web portal to all federal, state and local government web resources and services.